Location: Arborea
(39.7744°N, 8.5819°E)
Time: 02:46:44
(UTC+00:00)

Lacrosse 4 Rocket - Pass Details

Date: 24 October 2021
Orbit: 538 x 619 km, 68.0° (Epoch: 29 November)

Event Time Altitude Azimuth Distance (km) Brightness Sun altitude
Rises 19:07:39 0° 317° (NW) 2,831 5.7 -30.2°
Reaches altitude 10° 19:10:18 10° 301° (WNW) 1,940 4.9 -30.7°
Maximum altitude 19:13:32 21° 253° (WSW) 1,388 3.9 -31.3°
Enters shadow 19:14:53 18° 228° (SW) 1,502 3.8 -31.6°
